Temperature
8 7 6 7 8 9 9 9 9 11 12 11 11 12 13 13 13 13 13 13 12 12 12 12 12 12 12 12 12 12 12 12 12 12 12 12 12 12 12 12 12 12 12 12
7 6 8 8 9 9 9 9 9 10 11 11 11 11 12 13 13 13 13 12 12 12 12 11 12 12 11 11 12 12 12 11 12 12 12 12 12 11 11 11 11 11 11 12
6 7 8 8 8 8 8 8 9 9 10 11 10 10 11 12 13 13 12 12 12 11 11 11 11 11 11 11 11 11 11 11 11 11 11 11 11 11 11 11 11 11 11 11
7 8 8 8 8 8 7 9 9 9 8 8 10 8 10 11 11 11 12 11 11 11 10 10 10 10 10 11 11 11 11 11 11 11 11 11 11 11 11 11 11 11 11 11
7 7 7 7 8 8 8 9 9 9 8 8 9 8 9 11 10 11 10 10 10 10 10 10 10 10 10 10 10 10 10 10 10 10 10 10 10 10 10 10 10 10 10 10
7 8 7 7 8 8 8 8 8 8 8 7 8 9 9 10 10 10 10 10 10 10 9 9 9 9 9 10 10 10 10 10 10 10 10 10 10 10 10 10 10 10 10 10
6 7 7 7 7 7 8 7 6 6 6 7 9 9 9 10 10 10 10 10 9 9 9 9 9 9 9 9 9 9 9 9 9 9 9 10 10 10 10 10 10 10 10 10
5 5 7 7 7 6 7 7 6 6 7 8 9 8 9 10 10 10 10 9 9 8 8 8 8 8 8 8 8 9 9 9 9 9 9 9 9 9 9 9 9 9 10 10
4 5 7 7 7 7 6 6 7 6 7 7 8 9 9 10 9 9 9 8 8 8 8 7 7 8 8 8 8 8 8 8 8 8 8 8 9 9 9 9 9 9 9 9
4 4 6 7 7 6 6 6 6 6 6 6 8 8 8 8 8 8 8 7 7 7 7 7 7 7 7 7 7 8 8 8 8 8 8 8 8 8 8 8 8 8 8 8
4 3 5 5 5 5 5 6 5 5 6 6 6 7 8 7 7 7 7 7 7 7 6 6 6 7 7 7 7 7 7 7 7 7 7 7 7 8 8 8 8 8 8 8
3 3 3 4 6 6 6 5 5 4 5 6 6 5 7 7 7 6 6 6 6 6 6 6 6 6 6 6 6 6 6 7 7 6 7 7 7 7 7 7 7 7 7 7
3 2 2 4 4 4 4 5 4 4 4 5 5 5 6 6 6 6 5 6 6 5 5 5 5 5 5 5 5 5 5 6 6 6 6 6 6 7 7 7 7 7 7 7
3 1 2 3 3 3 3 4 4 3 3 4 5 5 5 5 5 5 5 5 5 5 4 4 4 4 4 4 4 5 5 5 5 5 5 6 6 6 6 6 6 6 6 6
1 1 1 2 3 4 3 3 3 3 3 3 4 4 4 4 4 4 4 4 4 3 3 3 3 3 3 3 4 4 4 4 4 4 5 5 5 5 5 5 5 5 5 5
-0 0 1 1 3 3 3 2 3 3 3 3 4 3 3 4 4 3 3 3 2 2 2 2 2 2 2 3 3 3 3 3 4 4 4 4 4 4 5 5 5 5 5 5
-1 -1 0 1 2 2 1 1 2 2 2 3 3 2 3 2 2 2 2 2 1 1 1 1 1 1 1 2 2 2 2 3 3 3 3 3 3 4 4 4 4 4 4 4
-1 -1 -0 1 1 1 1 1 2 1 1 1 1 1 2 1 1 1 1 1 0 0 0 0 1 1 1 1 1 1 2 2 2 2 2 2 3 3 3 3 3 3 3 3
-1 -1 -0 0 1 1 1 1 0 0 -0 0 0 1 1 1 1 0 0 -0 -0 -0 -0 -0 0 -0 -0 0 0 1 1 1 1 2 2 2 2 2 2 2 2 2 2 2
-1 -1 -1 0 0 1 1 -0 -0 -0 -1 -1 -0 -1 -0 0 -0 -1 -1 -1 -1 -1 -1 -1 -0 -0 -0 -0 -0 -0 0 0 1 1 1 1 1 1 1 1 2 1 1 1
-2 -1 -1 -1 -0 -0 -1 -1 -0 -0 -1 -1 -1 -1 -1 -2 -2 -2 -2 -2 -2 -1 -1 -1 -1 -1 -1 -1 -1 -1 -0 -0 -0 -0 0 0 0 0 0 1 1 1 1 1
-2 -2 -2 -1 -1 -1 -1 -1 -2 -2 -1 -1 -1 -2 -2 -2 -2 -3 -3 -2 -2 -2 -2 -2 -2 -2 -2 -2 -1 -1 -1 -1 -1 -1 -0 -0 -0 -0 -0 -0 -0 -0 0 0
-2 -2 -2 -2 -1 -1 -1 -1 -1 -1 -2 -2 -2 -2 -2 -3 -3 -3 -3 -3 -3 -3 -3 -3 -2 -3 -2 -2 -2 -2 -2 -2 -2 -1 -1 -1 -1 -1 -1 -1 -1 -1 -1 -1
-2 -2 -2 -3 -2 -1 -1 -1 -1 -2 -2 -2 -2 -3 -3 -3 -3 -4 -4 -4 -3 -3 -3 -3 -3 -3 -3 -3 -3 -3 -3 -2 -2 -2 -2 -2 -2 -1 -1 -1 -1 -1 -1 -1
-2 -3 -3 -4 -3 -2 -2 -2 -2 -2 -2 -3 -3 -3 -3 -4 -4 -4 -4 -4 -4 -4 -4 -4 -4 -4 -4 -4 -3 -3 -3 -3 -3 -3 -2 -2 -2 -2 -2 -2 -2 -2 -2 -2
-3 -3 -3 -3 -2 -3 -2 -2 -2 -3 -3 -3 -3 -3 -4 -4 -4 -4 -4 -5 -5 -5 -4 -5 -5 -4 -4 -4 -4 -4 -3 -3 -3 -3 -3 -3 -3 -3 -3 -3 -3 -3 -2 -2
Wind_Speed
2 2 4 5 6 5 5 7 8 8 6 8 10 10 6 5 5 5 5 4 4 3 2 3 3 4 5 6 7 8 7 7 6 5 5 5 4 4 4 5 7 7 7 7
1 3 5 5 6 6 7 8 7 5 5 6 8 9 5 5 6 5 5 5 3 2 2 2 2 4 4 5 7 7 7 7 6 5 4 3 4 4 3 4 6 6 6 6
2 3 4 4 4 6 7 7 6 5 4 5 5 7 7 5 4 3 4 4 4 4 4 4 3 4 4 4 4 5 6 6 6 7 5 5 4 3 3 3 3 4 6 6
2 3 3 3 3 4 6 5 6 5 3 3 4 5 7 7 6 5 4 4 3 3 3 3 3 4 5 4 4 4 4 5 6 7 7 8 6 4 4 4 3 4 5 6
1 2 2 3 4 4 5 5 5 5 4 4 5 4 4 7 6 6 5 4 3 3 3 3 3 3 4 4 4 4 4 4 5 6 7 7 5 4 4 4 5 4 4 5
1 1 2 3 4 3 4 2 3 3 3 5 7 6 4 5 7 5 4 3 2 2 2 2 3 3 2 4 4 4 4 4 4 5 5 6 7 6 6 5 5 4 3 4
3 2 1 2 2 1 1 1 0 1 3 4 5 4 4 4 3 3 3 4 3 2 2 2 3 2 2 3 4 4 4 4 3 4 4 4 5 6 7 6 6 5 4 4
3 3 2 2 1 1 2 1 1 1 2 2 3 4 2 0 3 3 3 3 3 2 2 2 2 2 2 2 3 4 4 3 3 3 4 4 4 4 4 5 4 5 4 4
3 2 2 4 3 2 1 1 2 2 2 2 3 3 2 1 3 3 3 3 3 1 1 1 1 2 2 2 2 3 3 3 3 3 3 3 4 4 4 4 3 3 4 4
4 4 3 2 1 1 2 1 1 1 1 2 3 3 2 1 2 2 2 1 1 1 2 1 1 2 2 2 2 2 2 2 2 2 3 2 3 3 3 4 4 4 4 4
4 2 3 1 0 1 1 1 1 2 3 1 2 1 2 2 2 2 2 1 2 2 2 2 1 2 2 2 2 2 2 3 2 1 2 3 3 3 3 3 3 4 4 4
3 2 3 3 1 1 1 1 1 1 3 2 1 2 3 3 3 3 3 2 3 3 3 3 2 2 2 2 2 2 2 2 2 1 2 2 3 3 3 2 3 3 4 4
3 1 2 2 0 1 1 2 2 3 3 3 2 2 2 5 5 5 4 3 3 3 4 4 3 3 3 3 2 2 2 2 2 2 3 3 3 3 3 3 2 3 3 3
2 1 2 3 3 2 3 4 3 2 2 3 3 4 3 5 6 6 5 4 4 4 4 4 4 3 3 3 3 3 2 2 2 2 3 3 2 2 2 2 3 3 3 3
1 2 4 7 8 6 6 6 5 5 5 4 4 4 5 4 4 5 5 5 5 5 5 5 5 5 4 3 3 3 2 2 2 3 3 2 2 2 2 3 3 3 3 3
1 2 3 5 6 5 6 7 7 7 6 6 6 5 5 3 3 5 6 5 5 5 5 5 5 5 5 4 3 3 3 2 2 3 2 3 3 2 2 2 3 3 3 2
1 1 2 3 4 4 4 5 5 3 3 3 4 4 4 5 5 5 5 5 4 4 5 4 4 4 4 4 3 3 2 2 2 2 3 3 3 2 2 2 3 3 3 2
1 1 2 3 4 4 3 1 1 2 2 2 2 3 4 4 4 4 4 4 4 4 4 4 4 4 4 3 3 2 2 2 1 2 3 3 2 2 2 2 3 2 2 2
2 2 2 2 3 5 2 0 1 1 2 2 2 4 4 4 3 3 5 6 5 4 4 4 3 3 3 3 3 3 2 2 2 2 2 2 2 2 2 2 2 2 2 2
2 2 2 3 3 4 2 0 1 1 2 2 2 2 4 4 2 3 5 5 5 5 4 3 3 3 3 3 3 2 2 2 2 1 2 2 2 2 2 2 1 1 2 2
2 2 4 5 4 5 1 0 1 2 4 1 1 2 2 2 2 3 4 4 4 4 4 3 3 2 2 2 2 2 2 2 2 2 2 2 1 1 1 1 1 1 2 2
4 3 3 3 4 6 1 2 2 3 1 1 2 2 2 3 2 3 3 3 4 4 4 4 3 3 3 2 2 2 1 2 2 2 2 2 1 1 2 2 1 1 2 3
5 5 3 5 6 2 3 2 2 1 2 2 2 2 2 3 3 3 3 3 3 3 3 3 3 3 3 2 1 1 2 1 1 1 1 1 2 1 1 1 1 1 2 2
3 3 3 4 6 4 3 3 2 1 2 2 2 2 2 2 3 3 3 3 2 3 3 3 2 3 3 3 2 1 1 1 0 1 1 1 1 1 1 1 1 1 1 2
3 4 4 5 5 4 4 3 1 1 2 2 2 2 2 2 2 3 3 3 2 2 2 2 2 2 3 3 2 1 1 0 0 0 0 1 1 1 1 1 1 1 1 2
5 5 5 6 4 3 3 0 0 1 2 2 2 2 2 2 2 2 2 2 2 2 2 2 2 3 3 2 2 2 1 0 1 1 0 0 1 1 1 1 1 2 1 1
Wind_Direction
202 223 232 237 226 244 246 241 245 249 227 231 229 233 223 197 191 198 202 212 209 193 150 138 134 126 138 142 144 147 147 145 138 138 136 139 140 129 119 115 121 126 125 123
211 242 254 255 242 244 251 248 246 255 244 242 241 243 228 212 195 188 194 203 213 192 155 144 131 123 134 155 154 151 154 158 154 154 149 141 137 129 123 118 116 128 128 129
262 281 262 248 249 250 258 247 243 244 277 251 245 243 220 209 201 194 192 189 188 192 184 176 159 141 142 153 159 163 167 160 155 144 131 120 112 114 127 133 138 133 135 133
265 291 262 237 247 262 258 263 255 242 238 250 226 236 222 198 199 207 204 196 194 194 176 169 159 158 161 164 157 154 159 156 153 147 152 154 156 162 168 160 155 137 134 134
322 322 308 262 261 266 271 282 262 240 242 256 230 225 230 195 209 208 190 188 200 186 171 169 162 163 165 150 144 155 151 156 156 158 163 162 159 154 143 143 148 150 144 141
344 342 315 289 276 265 281 272 285 258 237 238 223 210 233 211 210 205 194 175 176 163 150 137 131 124 130 127 132 144 151 160 154 158 165 163 158 153 149 159 163 159 158 155
328 354 339 298 300 296 321 66 31 228 207 226 208 211 227 213 179 171 172 163 153 137 130 115 116 111 107 126 134 142 151 157 160 161 164 163 160 159 165 170 171 164 163 168
344 327 6 4 350 309 262 254 208 240 223 251 205 211 219 162 119 119 122 126 135 120 120 116 126 125 123 129 138 145 150 155 159 160 166 160 154 158 170 172 171 173 170 172
342 309 357 348 338 313 293 243 275 295 281 257 213 195 196 86 84 98 97 93 117 131 124 115 113 124 124 134 133 149 151 146 156 169 161 161 162 161 163 160 159 161 158 158
334 299 299 317 319 314 300 316 332 277 266 255 224 206 198 119 27 67 121 128 122 125 116 96 85 84 112 129 127 128 135 130 142 161 162 160 147 151 159 153 156 155 149 145
341 307 304 330 232 275 283 252 281 271 269 253 241 227 16 96 60 17 22 54 38 69 95 99 74 64 92 120 121 130 129 110 108 137 144 136 134 130 136 148 148 149 147 150
337 323 291 270 249 308 289 267 272 247 277 267 256 281 8 54 66 43 27 36 47 62 56 58 71 66 60 85 97 95 114 121 131 131 108 106 113 118 120 130 145 151 153 152
346 351 308 304 263 2 310 287 273 270 272 261 231 244 28 36 38 26 21 29 49 53 45 48 59 59 55 59 64 73 80 92 105 115 109 103 102 112 120 120 122 134 141 145
338 265 237 253 279 290 281 279 280 256 241 261 234 251 315 357 4 1 4 18 43 51 42 42 47 41 48 48 48 55 56 74 84 101 112 114 109 105 111 118 121 119 131 138
25 269 272 279 282 272 268 269 259 244 250 248 265 282 302 335 350 359 10 18 38 39 38 38 37 27 27 39 45 55 56 67 91 102 99 100 94 91 98 108 114 111 113 129
13 279 295 279 267 258 262 271 260 254 258 258 270 286 307 329 17 15 7 19 25 29 33 33 30 22 19 20 24 42 45 42 85 98 100 99 98 98 102 107 112 112 113 110
298 287 301 280 317 324 270 248 241 228 233 245 259 275 335 356 8 3 358 10 15 20 27 27 22 13 11 8 13 21 25 40 84 103 106 106 107 107 106 112 117 123 126 124
202 268 262 289 326 260 240 127 169 215 261 288 286 319 338 339 347 4 11 11 8 14 17 16 19 10 3 6 8 17 28 37 80 99 102 107 112 111 104 105 118 128 125 131
193 200 250 266 274 271 263 316 350 232 285 308 288 312 329 338 335 10 21 18 14 15 14 11 10 1 1 11 16 24 34 40 60 88 100 108 117 120 115 115 121 129 125 117
190 188 232 247 257 257 264 47 15 60 261 328 345 319 323 333 304 304 360 11 7 4 3 5 5 8 12 13 24 28 25 34 38 60 94 101 112 127 134 138 129 125 125 125
196 211 224 240 245 261 270 228 131 187 249 302 335 307 311 299 269 299 340 354 356 353 352 1 9 11 4 4 20 19 22 10 8 38 72 82 90 116 123 114 112 129 129 123
193 202 208 220 234 253 156 132 191 232 299 315 307 291 290 285 297 317 329 334 342 347 351 357 6 359 354 359 18 24 8 0 22 47 64 72 71 83 103 104 95 116 132 128
203 202 202 207 222 243 170 202 246 288 278 295 297 295 278 273 278 298 317 321 329 342 345 350 356 344 343 352 11 19 330 355 25 54 67 71 63 65 90 122 130 133 137 137
213 196 225 251 254 251 242 227 248 257 260 298 302 286 274 265 267 286 296 306 323 337 341 346 344 338 336 346 355 328 312 333 41 87 93 95 92 85 88 100 122 138 157 152
223 187 220 246 265 283 261 241 264 313 312 310 306 290 272 261 268 269 282 295 302 317 328 331 322 319 317 332 344 337 328 6 116 114 100 92 93 94 91 75 81 147 184 176
208 195 199 227 223 215 249 230 348 288 285 288 285 293 287 255 249 259 278 291 306 318 325 325 319 318 320 328 330 330 332 209 161 171 191 167 139 124 121 114 65 53 105 103
Height
1474 1477 1476 1474 1473 1473 1472 1472 1472 1469 1466 1469 1468 1468 1466 1467 1469 1471 1474 1476 1478 1479 1481 1482 1483 1485 1487 1490 1492 1496 1499 1501 1503 1506 1509 1512 1515 1518 1521 1524 1526 1528 1530 1531
1475 1476 1473 1473 1472 1472 1473 1473 1471 1469 1466 1468 1467 1466 1465 1466 1467 1469 1472 1474 1476 1478 1479 1480 1482 1483 1485 1488 1489 1493 1496 1499 1501 1504 1507 1510 1513 1516 1519 1522 1524 1526 1528 1529
1474 1474 1472 1472 1472 1472 1471 1472 1470 1470 1467 1466 1468 1468 1466 1465 1466 1468 1470 1473 1474 1476 1477 1479 1480 1482 1483 1485 1487 1491 1494 1496 1499 1501 1505 1508 1511 1514 1517 1519 1522 1524 1525 1527
1473 1472 1470 1471 1472 1473 1473 1469 1468 1469 1472 1474 1470 1476 1466 1464 1465 1466 1468 1470 1472 1474 1475 1477 1478 1480 1482 1484 1486 1489 1491 1494 1496 1499 1502 1505 1507 1510 1513 1516 1519 1521 1523 1525
1473 1472 1471 1471 1471 1471 1470 1468 1468 1468 1472 1475 1471 1475 1468 1461 1464 1464 1465 1468 1470 1472 1474 1475 1477 1478 1480 1482 1484 1486 1489 1491 1494 1497 1500 1502 1505 1508 1511 1514 1516 1518 1520 1522
1473 1472 1472 1472 1470 1470 1470 1469 1468 1469 1473 1479 1468 1470 1469 1462 1461 1462 1464 1466 1468 1470 1472 1474 1475 1477 1478 1480 1482 1484 1486 1489 1492 1494 1497 1500 1502 1505 1508 1511 1513 1515 1517 1519
1474 1472 1472 1472 1471 1471 1471 1475 1478 1477 1478 1473 1461 1464 1466 1458 1457 1459 1462 1465 1467 1469 1470 1472 1473 1475 1476 1477 1479 1482 1484 1487 1489 1492 1494 1497 1499 1502 1505 1508 1510 1512 1514 1516
1481 1479 1474 1473 1474 1475 1473 1475 1481 1481 1476 1468 1461 1465 1463 1455 1456 1459 1461 1464 1466 1468 1469 1471 1472 1473 1475 1476 1478 1480 1482 1484 1487 1489 1491 1494 1496 1499 1502 1505 1507 1508 1510 1512
1487 1482 1475 1475 1474 1475 1475 1476 1476 1479 1473 1473 1466 1460 1459 1455 1457 1459 1461 1463 1465 1466 1468 1469 1471 1472 1473 1475 1476 1478 1480 1482 1484 1486 1488 1491 1493 1496 1499 1501 1503 1505 1507 1509
1490 1488 1479 1476 1475 1476 1476 1476 1479 1480 1478 1475 1465 1461 1464 1461 1461 1460 1462 1463 1464 1465 1466 1468 1469 1470 1472 1473 1475 1477 1478 1480 1482 1484 1486 1488 1491 1493 1496 1498 1500 1502 1504 1506
1491 1491 1484 1480 1481 1480 1479 1480 1479 1479 1476 1476 1474 1472 1463 1463 1462 1463 1462 1463 1464 1464 1466 1467 1468 1469 1471 1472 1473 1475 1476 1478 1480 1481 1483 1485 1488 1490 1492 1495 1497 1499 1501 1502
1493 1492 1490 1483 1479 1478 1478 1479 1481 1486 1481 1474 1475 1479 1465 1463 1462 1463 1463 1463 1464 1464 1465 1466 1467 1468 1469 1470 1471 1473 1474 1476 1477 1479 1481 1483 1485 1487 1489 1491 1493 1495 1497 1499
1495 1496 1494 1486 1486 1483 1482 1480 1481 1482 1481 1478 1479 1478 1466 1465 1465 1465 1465 1464 1464 1465 1466 1466 1467 1468 1468 1469 1471 1472 1473 1474 1475 1477 1478 1480 1482 1484 1486 1488 1490 1491 1493 1495
1495 1497 1498 1492 1486 1485 1485 1483 1481 1483 1483 1478 1474 1473 1470 1469 1468 1467 1466 1465 1465 1465 1466 1466 1466 1467 1468 1469 1470 1470 1471 1472 1473 1475 1476 1478 1479 1481 1483 1485 1486 1488 1490 1492
1497 1498 1495 1490 1484 1483 1483 1482 1481 1482 1479 1479 1473 1472 1472 1472 1471 1470 1468 1466 1466 1466 1466 1466 1466 1467 1467 1468 1469 1469 1470 1471 1472 1472 1474 1475 1477 1479 1480 1482 1484 1486 1487 1489
1498 1499 1496 1491 1482 1480 1481 1480 1479 1478 1477 1476 1474 1475 1473 1472 1471 1471 1470 1468 1467 1467 1466 1466 1466 1466 1466 1467 1467 1468 1468 1469 1470 1471 1472 1473 1475 1476 1478 1479 1481 1483 1484 1486
1499 1500 1498 1490 1483 1482 1483 1480 1479 1477 1476 1476 1476 1476 1473 1473 1472 1472 1471 1470 1468 1468 1467 1466 1466 1466 1466 1466 1466 1466 1467 1468 1468 1469 1470 1471 1473 1474 1476 1477 1478 1480 1481 1483
1500 1500 1498 1493 1490 1491 1481 1476 1476 1477 1476 1476 1475 1475 1474 1474 1473 1472 1472 1470 1469 1468 1467 1466 1466 1466 1466 1465 1465 1465 1466 1466 1467 1467 1468 1470 1471 1472 1473 1474 1476 1477 1479 1480
1497 1499 1497 1494 1490 1483 1479 1477 1478 1477 1478 1476 1475 1475 1474 1473 1472 1472 1472 1470 1469 1468 1467 1466 1466 1465 1464 1464 1464 1464 1464 1465 1465 1465 1466 1468 1469 1470 1471 1472 1473 1475 1476 1478
1496 1497 1498 1493 1490 1486 1479 1478 1477 1479 1480 1476 1475 1474 1473 1472 1473 1473 1471 1470 1468 1467 1466 1466 1465 1464 1464 1463 1463 1463 1463 1463 1463 1464 1465 1466 1467 1468 1469 1470 1472 1473 1474 1475
1498 1497 1496 1493 1489 1484 1480 1477 1477 1482 1479 1475 1474 1473 1473 1472 1473 1472 1470 1468 1467 1466 1465 1465 1464 1463 1462 1462 1462 1461 1461 1461 1462 1462 1463 1464 1465 1466 1467 1468 1470 1471 1472 1473
1495 1494 1494 1492 1490 1485 1478 1477 1479 1477 1474 1473 1472 1471 1471 1470 1470 1469 1468 1467 1466 1465 1464 1463 1462 1461 1461 1461 1460 1460 1460 1460 1460 1461 1461 1462 1463 1464 1466 1467 1468 1469 1470 1471
1489 1488 1487 1487 1484 1477 1475 1474 1474 1473 1472 1471 1470 1469 1468 1468 1467 1466 1465 1465 1464 1463 1462 1461 1460 1459 1459 1459 1459 1458 1458 1459 1459 1459 1460 1461 1462 1463 1464 1465 1466 1467 1468 1469
1482 1482 1483 1482 1476 1474 1473 1472 1472 1471 1470 1468 1468 1467 1466 1465 1464 1464 1463 1462 1462 1461 1460 1459 1458 1457 1457 1457 1457 1457 1457 1457 1457 1458 1458 1459 1460 1461 1462 1463 1464 1465 1466 1467
1478 1479 1480 1478 1474 1472 1470 1470 1469 1468 1467 1466 1465 1465 1464 1463 1462 1461 1461 1460 1460 1459 1458 1458 1457 1456 1455 1455 1455 1455 1455 1455 1455 1456 1457 1457 1458 1459 1460 1461 1462 1463 1464 1465
1473 1474 1475 1472 1469 1469 1468 1467 1467 1466 1465 1464 1463 1462 1461 1461 1460 1459 1459 1458 1458 1457 1457 1456 1455 1454 1453 1453 1453 1453 1453 1454 1454 1454 1455 1455 1456 1457 1458 1459 1460 1461 1462 1463